[[{"header":{"parameterUnit":"m.s-1","parameterCategory":1,"la1":30.2991,"la2":30.254,"lo1":-89.0895,"lo2":-89.0444,"dy":0.0017,"dx":0.0017,"nx":28,"ny":28,"refTime":"2024-04-01T03:00:00:Z","depth":0,"parameterNumber":2,"parameterNumberName":"U-component_of_WINDS"},"data":[0,0,0,0,0,0,0,0,0,0,0,0,0,0,0,0,0,0,0,0,0,0,0,0,0,0,0,0,0,0,0,0,0,0,0,0,0,0,0,0,0,0,0,0,0,0,0,0,0,0,0,0,0,0,0,0,0,0,-1.7788,-1.7788,0,-1.782,-1.782,-1.782,-1.7802,-1.7801,-1.78,-1.7799,-1.7832,-1.7834,-1.7836,0,0,0,0,0,0,0,0,0,0,0,0,0,-1.7711,-1.7712,-1.7787,-1.7788,-1.7788,-1.782,-1.782,-1.782,-1.7802,-1.7801,-1.78,-1.7799,-1.7832,-1.7834,-1.7836,0,0,0,0,0,0,0,0,0,0,0,0,0,-1.7743,-1.7713,-1.7787,-1.7783,-1.7783,-1.7819,-1.782,-1.7821,-1.7802,-1.7801,-1.78,-1.7798,-1.7831,-1.7834,-1.7836,-1.7879,0,0,-1.7844,-1.7845,0,0,0,0,0,0,0,0,-1.7742,-1.7746,-1.7783,-1.7783,-1.7783,-1.7805,-1.7805,-1.784,-1.7803,-1.7795,-1.7799,-1.7798,-1.7825,-1.7828,-1.7837,-1.7881,-1.7882,-1.7844,-1.7846,-1.7847,-1.7848,0,0,0,0,0,0,0,-1.7739,-1.7745,-1.78,-1.7784,-1.7784,-1.7779,-1.7783,-1.7812,-1.7817,-1.7796,-1.7794,-1.7798,-1.7824,-1.7834,-1.7837,-1.7883,-1.7844,-1.7847,-1.7848,-1.7849,-1.7962,-1.7964,0,0,0,0,0,0,-1.7737,-1.7743,-1.7799,-1.7801,-1.7759,-1.7782,-1.7785,-1.78,-1.7817,-1.7818,-1.7799,-1.7797,-1.783,-1.7834,-1.7838,-1.7888,-1.7847,-1.7849,-1.7851,-1.7961,-1.7963,-1.7964,0,0,0,0,0,0,-1.7736,-1.7743,-1.7798,-1.7772,-1.7778,-1.7785,-1.7801,-1.7801,-1.7811,-1.782,-1.782,-1.7808,-1.7829,-1.7835,-1.7869,-1.7889,-1.7851,-1.7853,-1.7959,-1.7962,-1.7964,-1.799,0,0,0,0,0,0,-1.7734,-1.7742,-1.7758,-1.7772,-1.778,-1.7828,-1.7802,-1.7803,-1.7815,-1.7813,-1.7828,-1.7829,-1.7829,-1.7865,-1.7871,-1.7892,-1.7855,-1.7957,-1.796,-1.7963,-1.7987,-1.7993,-1.7997,0,0,0,0,0,-1.7731,-1.7765,-1.7759,-1.7766,-1.78,-1.7829,-1.7833,-1.7832,-1.7817,-1.7833,-1.7839,-1.7829,-1.7887,-1.7869,-1.7876,-1.7898,-1.7956,-1.7959,-1.7963,-1.7985,-1.7992,-1.7997,0,0,0,0,0,0,-1.7754,-1.7767,-1.7761,-1.78,-1.7814,-1.7826,-1.7846,-1.7839,-1.7858,-1.7855,-1.7852,-1.7856,-1.7891,-1.7898,-1.7878,-1.794,-1.7919,-1.7924,-1.7933,-1.794,-1.7945,-1.7942,-1.7857,0,0,0,0,0,-1.7763,-1.7785,-1.7796,-1.7829,-1.7836,-1.784,-1.7853,-1.7851,-1.7865,-1.787,-1.7878,-1.7892,-1.7913,-1.7927,-1.7947,-1.7989,-1.7991,-1.8007,-1.8012,-1.8016,-1.802,-1.8041,-1.8048,-1.7975,-1.7975,-1.7975,0,0,-1.7783,-1.7793,-1.7807,-1.7834,-1.7844,-1.7867,-1.7845,-1.7871,-1.7887,-1.7874,-1.7906,-1.7913,-1.7928,-1.7966,-1.7983,-1.7973,-1.8041,-1.8021,-1.8024,-1.8025,-1.8045,-1.8052,-1.8058,-1.7977,-1.7977,-1.7977,0,0,-1.783,-1.7841,-1.7869,-1.788,-1.7896,-1.7898,-1.7905,-1.7919,-1.7922,-1.7955,-1.7945,-1.7965,-1.8002,-1.8013,-1.8023,-1.8075,-1.8066,-1.8081,-1.8108,-1.8128,-1.8134,-1.8139,-1.8156,-1.8162,-1.8085,-1.8086,-1.8086,0,-1.7853,-1.7887,-1.7885,-1.7911,-1.7922,-1.7912,-1.794,-1.7951,-1.7972,-1.7981,-1.7969,-1.8014,-1.8024,-1.8063,-1.8076,-1.8085,-1.8092,-1.8079,-1.8133,-1.8138,-1.8143,-1.8159,-1.8166,-1.8087,-1.8087,-1.8087,-1.8087,0,-1.7913,-1.7937,-1.7958,-1.7978,-1.7993,-1.802,-1.8022,-1.8037,-1.8034,-1.8037,-1.807,-1.8081,-1.8103,-1.8113,-1.811,-1.8151,-1.8144,-1.8133,-1.8112,-1.8152,-1.8166,-1.8173,-1.809,-1.8089,-1.8088,-1.8088,0,0,-1.7975,-1.7994,-1.8002,-1.801,-1.8027,-1.8045,-1.8072,-1.8092,-1.8104,-1.812,-1.8141,-1.8173,-1.8162,-1.8174,-1.8173,-1.8191,-1.8229,-1.8177,-1.8178,-1.8185,-1.8274,-1.8281,-1.8289,-1.8224,-1.8225,-1.8226,-1.8272,0,-1.8022,-1.8068,-1.8067,-1.811,-1.8131,-1.8121,-1.8144,-1.8156,-1.8161,-1.8179,-1.8184,-1.8205,-1.8191,-1.8198,-1.8216,-1.8221,-1.8247,-1.8218,-1.8243,-1.8244,-1.8238,-1.8297,-1.8304,-1.8347,-1.8279,-1.828,-1.828,0,-1.8084,-1.81,-1.8144,-1.8157,-1.8166,-1.8186,-1.8205,-1.8223,-1.8237,-1.8239,-1.8252,-1.8247,-1.8274,-1.8253,-1.8289,-1.8269,-1.828,-1.8284,-1.8286,-1.8287,-1.8263,-1.8298,-1.8361,-1.8367,-1.829,-1.8289,-1.8288,0,-1.8122,-1.8156,-1.8186,-1.8194,-1.821,-1.8225,-1.8232,-1.8245,-1.8257,-1.8273,-1.8281,-1.8301,-1.8311,-1.8327,-1.8327,-1.8312,-1.8363,-1.8343,-1.8364,-1.8364,-1.8374,-1.8373,-1.8439,-1.8384,-1.8384,-1.8384,-1.8384,0,-1.8174,-1.8201,-1.8204,-1.8222,-1.8252,-1.8251,-1.8281,-1.8287,-1.8298,-1.8318,-1.8311,-1.8329,-1.833,-1.8349,-1.835,-1.8379,-1.8384,-1.8385,-1.8385,-1.8385,-1.8385,-1.8391,-1.8387,-1.8386,-1.8385,-1.8385,-1.8385,0,-1.8222,-1.8225,-1.8257,-1.8269,-1.8273,-1.8294,-1.8305,-1.8322,-1.8326,-1.835,-1.8356,-1.8362,-1.8384,-1.8386,-1.8412,-1.8412,-1.8447,-1.8444,-1.8442,-1.8441,-1.8461,-1.8459,-1.8532,-1.854,-1.8482,-1.8482,-1.8483,0,-1.8254,-1.8274,-1.8289,-1.8301,-1.8309,-1.8329,-1.8341,-1.8341,-1.8354,-1.8371,-1.8387,-1.8408,-1.8424,-1.8459,-1.8466,-1.8485,-1.8482,-1.8506,-1.8484,-1.8484,-1.848,-1.8478,-1.848,-1.851,-1.851,-1.8511,-1.8511,0,-1.831,-1.831,-1.8328,-1.8347,-1.8361,-1.8376,-1.839,-1.84,-1.8402,-1.8417,-1.8439,-1.8452,-1.8477,-1.8498,-1.8517,-1.8524,-1.8518,-1.8518,-1.8524,-1.8523,-1.852,-1.852,-1.8451,-1.8516,-1.8516,-1.8515,-1.8515,-1.8515,-1.835,-1.8367,-1.838,-1.8399,-1.841,-1.8422,-1.8439,-1.8445,-1.8463,-1.8483,-1.8483,-1.8506,-1.8519,-1.8544,-1.8553,-1.8571,-1.8563,-1.8572,-1.8574,-1.8575,-1.8577,-1.8519,-1.8575,-1.8575,-1.8575,-1.8574,-1.8574,0,-1.8405,-1.8412,-1.843,-1.8449,-1.8465,-1.8458,-1.8472,-1.8486,-1.8507,-1.8519,-1.8535,-1.856,-1.858,-1.8588,-1.8607,-1.862,-1.8618,-1.8625,-1.8623,-1.8625,-1.8584,-1.8576,-1.8627,-1.8627,-1.8627,-1.8627,-1.8627,-1.8627,-1.8435,-1.8463,-1.8465,-1.8498,-1.8505,-1.8528,-1.8537,-1.8548,-1.8558,-1.8586,-1.8602,-1.8607,-1.8618,-1.8638,-1.8655,-1.8657,-1.8664,-1.8672,-1.8673,-1.8633,-1.8628,-1.8623,-1.8616,-1.8674,-1.8674,-1.8712,-1.8713,-1.8713]},{"header":{"parameterUnit":"m.s-1","parameterCategory":1,"la1":30.2991,"la2":30.254,"lo1":-89.0895,"lo2":-89.0444,"dy":0.0017,"dx":0.0017,"nx":28,"ny":28,"refTime":"2024-04-01T03:00:00:Z","depth":0,"parameterNumber":3,"parameterNumberName":"V-component_of_WINDS"},"data":[0,0,0,0,0,0,0,0,0,0,0,0,0,0,0,0,0,0,0,0,0,0,0,0,0,0,0,0,0,0,0,0,0,0,0,0,0,0,0,0,0,0,0,0,0,0,0,0,0,0,0,0,0,0,0,0,0,0,3.1927,3.1928,0,3.1963,3.1963,3.1964,3.1963,3.1962,3.1962,3.1961,3.1997,3.1999,3.2,0,0,0,0,0,0,0,0,0,0,0,0,0,3.1859,3.186,3.1927,3.1928,3.1928,3.1963,3.1963,3.1964,3.1963,3.1962,3.1962,3.1961,3.1997,3.1999,3.2,0,0,0,0,0,0,0,0,0,0,0,0,0,3.1891,3.186,3.1927,3.1932,3.1933,3.1963,3.1963,3.1964,3.1963,3.1962,3.1962,3.1961,3.1996,3.1998,3.2,3.2028,0,0,3.2007,3.2008,0,0,0,0,0,0,0,0,3.1889,3.1893,3.1931,3.1932,3.1933,3.1958,3.1952,3.1985,3.1963,3.1952,3.1961,3.1961,3.1985,3.1988,3.1996,3.203,3.2031,3.2007,3.2008,3.2009,3.201,0,0,0,0,0,0,0,3.1887,3.1892,3.1941,3.1931,3.1932,3.1932,3.1936,3.1959,3.1972,3.1952,3.1952,3.1957,3.1985,3.1994,3.1997,3.2032,3.2007,3.2009,3.201,3.2011,3.2092,3.2092,0,0,0,0,0,0,3.1883,3.189,3.194,3.1942,3.1909,3.1934,3.1938,3.195,3.1971,3.1974,3.1957,3.1957,3.1991,3.1994,3.1998,3.2033,3.2009,3.2011,3.2012,3.2091,3.2092,3.2093,0,0,0,0,0,0,3.1882,3.1888,3.1939,3.1916,3.1923,3.1936,3.195,3.1951,3.196,3.1975,3.1977,3.1964,3.199,3.1995,3.2021,3.2034,3.2012,3.2014,3.209,3.2091,3.2092,3.2103,0,0,0,0,0,0,3.188,3.1887,3.1898,3.1916,3.1924,3.1961,3.195,3.1953,3.1964,3.1963,3.1982,3.1984,3.199,3.2018,3.2023,3.2037,3.2016,3.2089,3.209,3.2092,3.2101,3.2104,3.2107,0,0,0,0,0,3.1878,3.1899,3.1899,3.1905,3.1937,3.1962,3.1966,3.1972,3.1965,3.1976,3.1986,3.1984,3.2032,3.202,3.2026,3.2041,3.2088,3.209,3.2092,3.21,3.2104,3.2107,0,0,0,0,0,0,3.1882,3.1902,3.1901,3.1929,3.1944,3.1962,3.1976,3.1976,3.1993,3.1991,3.1998,3.2002,3.2028,3.2037,3.2024,3.207,3.2059,3.2062,3.2063,3.2067,3.2069,3.2068,3.2018,0,0,0,0,0,3.1886,3.1904,3.192,3.1944,3.1951,3.1962,3.1973,3.1977,3.1992,3.1998,3.201,3.2024,3.2043,3.2055,3.2073,3.2102,3.2107,3.2115,3.2118,3.212,3.2123,3.2141,3.2145,3.2099,3.2099,3.2099,0,0,3.1895,3.1908,3.1919,3.1945,3.1957,3.1976,3.1967,3.1988,3.2002,3.2001,3.2027,3.2036,3.2053,3.2081,3.2094,3.2089,3.2137,3.2122,3.2124,3.2126,3.2143,3.2148,3.2152,3.21,3.21,3.21,0,0,3.1921,3.1932,3.1954,3.1966,3.1984,3.1991,3.1996,3.2014,3.202,3.2046,3.2046,3.2063,3.2095,3.2107,3.2118,3.215,3.2149,3.2155,3.217,3.2187,3.2191,3.2194,3.2207,3.2211,3.2158,3.2158,3.2158,0,3.193,3.1959,3.1965,3.1986,3.1998,3.1998,3.202,3.2031,3.2054,3.2062,3.2056,3.2097,3.2108,3.214,3.2148,3.2156,3.2162,3.2154,3.219,3.2193,3.2196,3.2209,3.2213,3.2159,3.2158,3.2158,3.2158,0,3.1969,3.199,3.2005,3.2028,3.2041,3.2062,3.2072,3.2084,3.2087,3.2095,3.2122,3.2135,3.2156,3.2164,3.2166,3.2196,3.2193,3.2188,3.2178,3.2201,3.2213,3.2218,3.216,3.2159,3.2159,3.2159,0,0,3.2,3.2026,3.2032,3.2043,3.2063,3.2079,3.21,3.2121,3.2133,3.2148,3.2167,3.2194,3.219,3.2202,3.2206,3.222,3.2247,3.2214,3.2215,3.2221,3.2283,3.2288,3.2293,3.2246,3.2247,3.2248,3.2282,0,3.203,3.2069,3.2075,3.2109,3.2128,3.2129,3.2148,3.2162,3.217,3.2188,3.2196,3.2216,3.2208,3.2216,3.223,3.2241,3.226,3.2238,3.2265,3.2266,3.2262,3.2299,3.2304,3.2336,3.2287,3.2287,3.2288,0,3.207,3.2088,3.2124,3.2143,3.2151,3.2168,3.2189,3.2205,3.2222,3.2226,3.224,3.2242,3.2265,3.2253,3.2285,3.227,3.2281,3.2288,3.2289,3.2293,3.2279,3.2306,3.2346,3.2352,3.2295,3.2294,3.2294,0,3.2091,3.2123,3.215,3.2159,3.2181,3.2193,3.2203,3.2219,3.2231,3.2249,3.2257,3.2277,3.2288,3.2304,3.2311,3.2301,3.2344,3.2331,3.2349,3.2349,3.2359,3.2359,3.2404,3.2364,3.2364,3.2363,3.2363,0,3.2125,3.2147,3.216,3.2176,3.2202,3.2208,3.2234,3.2243,3.2257,3.2276,3.2276,3.2294,3.2302,3.232,3.2326,3.2353,3.2357,3.2363,3.2364,3.2364,3.2363,3.2372,3.2371,3.2365,3.2364,3.2364,3.2364,0,3.2153,3.2162,3.2191,3.221,3.2215,3.2233,3.2249,3.2265,3.2273,3.2296,3.2302,3.2315,3.2337,3.2345,3.2372,3.2376,3.2407,3.2406,3.2402,3.2403,3.2421,3.242,3.2475,3.2483,3.2436,3.2436,3.2436,0,3.2175,3.2192,3.2213,3.2226,3.2236,3.2256,3.2269,3.2276,3.229,3.2311,3.2325,3.2347,3.2365,3.24,3.2412,3.2433,3.2433,3.2451,3.2436,3.2436,3.2436,3.2435,3.2438,3.2454,3.2455,3.2455,3.2455,0,3.2213,3.2217,3.2236,3.2257,3.2273,3.229,3.2306,3.2316,3.2326,3.2341,3.2364,3.2378,3.2406,3.2428,3.245,3.246,3.246,3.246,3.2465,3.2466,3.2464,3.2467,3.2412,3.2459,3.2458,3.2458,3.2458,3.2458,3.224,3.2257,3.2274,3.2296,3.2309,3.2324,3.2341,3.2351,3.237,3.2393,3.2396,3.2421,3.2438,3.2467,3.2478,3.2498,3.2493,3.2501,3.2503,3.2505,3.2508,3.2459,3.2501,3.2501,3.2501,3.2501,3.2501,0,3.228,3.2292,3.2311,3.2335,3.2352,3.235,3.2368,3.2382,3.2404,3.242,3.2438,3.2465,3.2487,3.25,3.2522,3.2536,3.2536,3.2541,3.2542,3.2544,3.2509,3.2503,3.2541,3.2541,3.2541,3.2541,3.2541,3.2541,3.2303,3.2331,3.2337,3.2372,3.2383,3.2408,3.2419,3.2433,3.2446,3.2476,3.2494,3.2503,3.2518,3.2541,3.2561,3.2565,3.2574,3.258,3.2583,3.255,3.2546,3.2543,3.2537,3.2581,3.2581,3.2616,3.2617,3.2617]}]]